{"data":{"norad_id":53709,"epoch":"2026-05-25T00:48:00.027360Z","epoch_age_seconds":71445,"freshness":"FRESH","line1":"1 53709U 22107K   26145.03333365 -.00001019  00000+0 -45951-4 0  9990","line2":"2 53709  53.2155 266.0943 0001323  91.6973 268.4171 15.08828865206009","mean_motion":15.08828865,"eccentricity":0.0001323,"inclination_deg":53.2155,"raan_deg":266.0943,"arg_perigee_deg":91.6973,"mean_anomaly_deg":268.4171,"bstar":-4.5951e-5,"rev_number":20600,"period_min":95.438258996987,"perigee_km":538.86218433544,"apogee_km":540.69266449214,"semimajor_km":6917.9144244138,"source":"CELESTRAK","updated_at":"2026-05-25T13:38:17.533397Z"}}